Location: Unspecified
(0.0000°N, 0.0000°E)
Time: 21:57:09
(UTC+00:00)

BlueWalker 3 - Pass Details

Date: 18 February 2024
Orbit: 486 x 500 km, 53.2° (Epoch: 20 February)

Event Time Altitude Azimuth Distance (km) Brightness Sun altitude
Exits shadow 04:19:51 12° 168° (SSE) 1,545 4.7 -27.9°
Drops below altitude 10° 04:20:14 10° 166° (SSE) 1,686 4.9 -27.8°
Sets 04:22:30 0° 158° (SSE) 2,573 6.0 -27.2°
